Location: Cartignies
(50.0929°N, 3.8447°E)
Time: 14:37:14
(UTC+00:00)

SL-4 R/B - Pass Details

Date: 12 January 2026
Orbit: 383 x 518 km, 51.6° (Epoch: 16 February)

Event Time Altitude Azimuth Distance (km) Brightness Sun altitude
Rises 17:02:17 0° 288° (WNW) 2,654 6.3 -8.7°
Reaches altitude 10° 17:04:33 10° 284° (WNW) 1,758 5.5 -9.0°
Maximum altitude 17:08:28 54° 207° (SSW) 625 2.6 -9.6°
Drops below altitude 10° 17:12:16 10° 129° (SE) 1,706 4.2 -10.2°
Enters shadow 17:14:25 - 125° (SE) 2,559 5.1 -10.5°
